Location: Ladrillo (historical)
(32.8195°N, 117.2231°W)
Time: 02:51:01
(UTC+00:00)

Uosat 12 SS-18 rocket - Pass Details

Date: 29 October 2020
Orbit: 601 x 1384 km, 64.6° (Epoch: 26 November)

Event Time Altitude Azimuth Distance (km) Brightness Sun altitude
Rises 13:23:33 0° 221° (SW) 3,274 7.5 -9.2°
Reaches altitude 10° 13:26:12 10° 227° (SW) 2,239 6.6 -8.7°
Maximum altitude 13:31:00 47° 301° (WNW) 882 4.5 -7.7°
Drops below altitude 10° 13:35:15 10° 15° (NNE) 1,985 6.7 -6.8°
Sets 13:37:29 0° 22° (NNE) 2,863 7.6 -6.4°
